User: anonymous   Login
Location: PFO Observatory
(45.2937°N, 66.0991°W)
Time: 01:32:58
(UTC-03:00)
Language:

Cosmos 1151 Rocket - Orbit

View from above orbital plane
View from above orbital plane
View from above satellite
View from above satellite

Ground track
Ground track

The orbit data is extracted from the following two-line orbital elements,

1 11672U 80005B   16207.53041082  .00000119  00000-0  10355-4 0  9998
2 11672  82.5143  27.6736 0015851 326.1230  33.8973 14.87799983974828
Epoch (UTC): 25 July 2016 12:43:47
Eccentricity: 0.0015851
inclination: 82.5143°
perigee height: 594 km
apogee height: 616 km
right ascension of ascending node: 27.6736°
argument of perigee: 326.1230°
revolutions per day: 14.87799983
mean anomaly at epoch: 33.8973°
orbit number at epoch: 97482

The dashed part of the orbit path shows where the satellite is in the earth's shadow,  

DLR